Miscellaneous Local Product
Issued by NWS North Platte, NE

Home | Current Version | Previous Version | Graphics & Text | Print | Product List | Glossary On
Versions: 1 2 3 4 5 6 7 8 9 10 11 12 13 14 15 16 17 18 19 20 21 22 23 24 25 26 27 28 29 30 31 32 33 34 35 36 37 38 39 40 41 42 43 44 45 46 47 48 49 50
000
AXUS43 KLBF 161310
MISLBF


WESTERN AND NORTH CENTRAL NEBRASKA HOURLY WEATHER ROUNDUP
NATIONAL WEATHER SERVICE NORTH PLATTE NE
700 AM CST SAT DEC 16 2017

NOTE: "FAIR" INDICATES FEW OR NO CLOUDS BELOW 12,000 FEET WITH NO
SIGNIFICANT WEATHER AND/OR OBSTRUCTIONS TO VISIBILITY.

NOTE: STATIONS NOT REPORTING VARIABLES SUCH AS SKY/WEATHER OR
PRESSURE ARE PROVIDED BY RAWS AND APRS NETWORKS AND ARE NOT UNDER
NATIONAL WEATHER SERVICE QUALITY CONTROL.

...OBSERVATIONS IN AND NEAR THE EASTERN PANHANDLE OF NEBRASKA...

CITY           SKY/WX    TMP DP  RH WIND       PRES   REMARKS
PINE RIDGE     CLOUDY    29  22  75 CALM      29.81R
GORDON         FAIR      29  22  77 SW3       29.81R
CHADRON        CLOUDY    29  18  63 W6        29.83R WCI  23
ALLIANCE       CLOUDY    26  13  57 NW7       29.80R WCI  18
SIDNEY         CLOUDY    28   7  41 NW13      29.77R WCI  17
CRESCENT LAKE    N/A     31  15  50 MISG        N/A
$$

...OBSERVATIONS IN NORTHERN NEBRASKA AND FAR SOUTHERN SOUTH DAKOTA...

CITY           SKY/WX    TMP DP  RH WIND       PRES   REMARKS
WINNER         FAIR      34  24  67 W7        29.79R WCI  28
VALENTINE      CLOUDY    32  25  75 W7        29.79R WCI  26
THEDFORD       CLOUDY    33  23  65 W6        29.80R WCI  28
AINSWORTH      CLOUDY    33  27  78 W7        29.77R WCI  26
O`NEILL        CLOUDY    32  26  76 W3        29.77R
ORD            CLOUDY    29  23  78 NW6       29.76R WCI  23
BROKEN BOW     CLOUDY    38  21  50 N5        29.76R WCI  34
VALENTINE NWR    N/A     33  23  68 NW6         N/A  WCI  27
HALSEY           N/A     35  19  52 NW3         N/A
BUTTE            N/A     35  25  66 NW8         N/A  WCI  28
EWING            N/A     30  25  81 N3          N/A
$$

...OBSERVATIONS IN SOUTHWEST NEBRASKA AND FAR NORTHEAST COLORADO...

CITY           SKY/WX    TMP DP  RH WIND       PRES   REMARKS
WRAY           FAIR      28  14  54 NW8       29.76R WCI  20
HOLYOKE        FAIR      28  16  59 NW3       29.76S
IMPERIAL       CLOUDY    30  14  51 NW3       29.76R
OGALLALA       CLOUDY    26  17  68 W7        29.79R WCI  18
NORTH PLATTE   CLOUDY    27  21  78 CALM      29.77R
MCCOOK         CLOUDY    25  12  58 W10       29.74S WCI  15
LEXINGTON      PTCLDY    31  20  62 NW7       29.76R WCI  24
STAPLETON        N/A     33  17  51 CALM        N/A
GOTHENBURG       N/A     33  19  56 W5          N/A  WCI  28
CALLAWAY         N/A     37  20  50 N6          N/A  WCI  32
$$

...OBSERVATIONS IN CENTRAL LINCOLN COUNTY AREA...

CITY           SKY/WX    TMP DP  RH WIND       PRES   REMARKS
N.P. AIRPORT   CLOUDY    27  21  78 CALM      29.77R
N.P. DOWNTOWN    N/A     30  21  68 CALM        N/A
N.P. SOUTHEAST   N/A     31  20  63 CALM        N/A
N.P. HILLCREST   N/A     31  21  65 W3          N/A
$$

...SOME OBSERVATIONS FROM AROUND THE REGION...

CITY           SKY/WX    TMP DP  RH WIND       PRES   REMARKS
DENVER         CLOUDY    39  17  41 SE6       29.75R WCI  35
GRAND JUNCTION CLOUDY    23   8  52 E3        29.90F
LARAMIE        CLOUDY    31   8  38 SW15      29.80F WCI  20
CHEYENNE       CLOUDY    42   4  20 E6        29.80R
CASPER         CLOUDY    31  20  63 N7        29.84R WCI  24
BISMARCK       CLOUDY    36  33  89 NW6       29.80R WCI  31
RAPID CITY     PTCLDY    36  22  56 N25G33    29.84R WCI  24
PIERRE         CLOUDY    34  26  72 NW13      29.78R WCI  25
SIOUX FALLS    CLOUDY    32  25  75 CALM      29.74R
OMAHA          CLOUDY    32  20  61 SE5       29.77R WCI  27
GRAND ISLAND   PTCLDY    29  22  75 W3        29.76R
SCOTTSBLUFF    CLOUDY    37  11  34 N8        29.81R WCI  31
KANSAS CITY    CLEAR     35  24  64 S13       29.85S WCI  26
HILL CITY      CLOUDY    24  13  62 W3        29.75S
WICHITA        CLOUDY    32  25  75 S12       29.88R WCI  23
DODGE CITY     CLOUDY    28  18  66 S15       29.78R WCI  16
OKLAHOMA CITY  PTCLDY    35  24  64 S12       30.01R WCI  27
DALLAS         MOCLDY    40  28  62 S7        30.11S
AMARILLO       CLOUDY    32  22  66 SW15      29.86F WCI  22
$$




USA.gov is the U.S. government's official web portal to all federal, state and local government web resources and services.